Portada
METAR-TAF:

METAR-TAF

Aeropuertos :

Hoonah, Alaska, Estados Unidos

latitud: 58-07N, longitud: 135-27W, altitud: 0 m

Observación

El informe se hizo hace 1 hora y 4 minutos, a las 15:56 UTC
Viento 6 kt del este
Temperatura 10°C
Humedad 82%
Presión 1014 hPa
Visibilidad: 16.1 km
Cielo cubierto a una altura de 2400 ft

METAR: PAOH 211556Z AUTO 08006KT 10SM OVC024 10/07 A2995 RMK AO2 SLP145 P0001 T01000072

Hora: 09:00 (17:00 UTC)


TAF: falta

Observaciones y pronósticos meteorológicos de más de 4000 aeropuertos (mensajes METAR y TAF).

Los puntos amarillos y rojos representan las estaciones disponibles.

Ponga el ratón en el punto deseado para ver el nombre de la estación.

Haga clic para ver las observaciones y los pronósticos meteorológicos.

Para cambiar el mapa : haga clic en los botones verdes con una cruz de color negro para hacer un zoom, en el botón verde con un guión para alejar o en las flechas verdes para mapas adyacentes.


METAR-TAF: